Showing default

EMISAT, 44078

Orbit data source: Space-Track

EMISAT, 44078 is a payload satellite owned by ISRO (IN) in SSO that was launched on Mon, 01 Apr 2019 UTC via a PSLV-QL launch vehicle from the Sirharikota (SRI). Payloads include a variety of satellites, spacecraft, and rockets equipped with specific instruments for various scientific and technological missions. These include communications satellites like Starlink; space stations such as the ISS; scientific satellites like the Hubble; Earth observation satellites from companies like Planet Labs, Umbra, and HawkEye 360; GPS; miniature CubeSats for education and research; and military/defense satellites.

Loading next visibility...
EMISAT details
Identifier
44078, 2019-018A
Orbit
SSO
Last TLE update5 hours ago
Origin
Flag of INISRO (IN / IND)
ManufacturerISRO
MissionOperational Defense Sigint
Bus & MotorSSB-2, AOCS
Mass436 kg wet, ~380 kg dry
Launch date (UTC)
2019-04-01 (6 years ago)
Launch vehicle
PSLV-QL
Launch site
Sirharikota (SRI)
Object type
Payload
Rocket body
Debris
Shape & HBRBox + 2 Pan, 6 m
Radar Cross Section4.485 m², Large (>1 m²)

Expand to show TLE details & history

TLE from 5 hours ago
0 EMISAT
1 44078U 19018A   25044.45889948  .00000449  00000-0  14445-3 0  9990
2 44078  98.3048 104.3877 0017499 251.2151 108.7142 14.43770292309536
Epoch: 2025-02-13T11:00Z
Definitive object data (Epoch: 2025-02-13T11:00:48.915Z)
Latitude0.00005°
Longitude155.44916°
Altitude753.048 km
Speed7.476 km/s
True Right ascension06h 57m 33s
True Declination0° 00' 00"
Sunlit
Object was in full shadow at TLE epoch
Visualization TLE readout
Latitude15.77456°
Longitude153.30434°
Altitude755.556 km
Speed7.474 km/s
Apparent Right ascension06h 45m 11s
Apparent Declination-10° 19' 25"
Sunlit
Object is in full shadow
Visualization observer readout
Local Sidereal Time18:39:54
Azimuth357.366° N
Elevation-60.384°
Doppler factor1
Orbital elements
Apogee altitude755.638 km
Perigee altitude730.715 km
Semi-major axis7,121.313 km
Eccentricity0.0017499
Inclination98.3048°
RAAN104.3877°
Arg. of periapsis251.2151°
True anomaly108.90399°
Mean anomaly108.7142°
Eccentric anomaly108.80911°
Mean motion3.61163 °/min
BSTAR0.00014445
Orbital period99.68 mins
Loading maneuver chart data...

EMISAT Visibility forecast

Observer location: undefined°, undefined

Span
Click to sort rows by Start time (UTC) header in descending order
Start Az.
Max El. time (UTC)
Max El. Az.
Max El.
End time (UTC)
End Az.
9 mins2025-02-13 16:34:36.406Z18.779° NNE2025-02-13 16:39:36.406Z140.549° SSE41.984°2025-02-13 16:43:36.406Z184.905° SSW
4 mins2025-02-13 18:15:36.406Z317.936° NNW2025-02-13 18:17:36.406Z291.784° WNW13.618°2025-02-13 18:19:36.406Z267.85° W
8 mins2025-02-14 03:46:36.406Z160.645° S2025-02-14 03:49:36.406Z135° SSE43.695°2025-02-14 03:54:36.406Z349.37° N
7 mins2025-02-14 15:53:36.406Z47.965° ENE2025-02-14 15:56:36.406Z95.181° ESE23.884°2025-02-14 16:00:36.406Z150.954° SSE
|